Location: Unspecified
(50.7693°N, 0.0000°E)
Time: 04:54:50
(UTC+00:00)

deb Explorer IX - Pass Details

Date: 22 June 2019
Orbit: 539 x 1112 km, 38.8° (Epoch: 22 July)

Event Time Altitude Azimuth Distance (km) Brightness Sun altitude
Rises 18:39:12 0° 265° (W) 3,921 ? 12.4°
Reaches altitude 10° 18:43:11 10° 246° (WSW) 2,920 ? 11.8°
Maximum altitude 18:47:15 16° 211° (SSW) 2,418 ? 11.2°
Drops below altitude 10° 18:51:09 10° 175° (S) 2,752 ? 10.6°
Sets 18:54:45 0° 155° (SSE) 3,590 ? 10.1°
